Location: Bu�n Treun
(12.1333°N, 108.3167°E)
Time: 13:21:23
(UTC+00:00)

Orbus 7S - Pass Details

Date: 13 July 2020
Orbit: 362 x 11860 km, 27.2° (Epoch: 06 August)

Event Time Altitude Azimuth Distance (km) Brightness Sun altitude
Rises 12:37:21 0° 278° (W) 2,177 7.7 -18.9°
Reaches altitude 10° 12:39:12 10° 263° (W) 1,360 6.1 -19.2°
Maximum altitude 12:41:31 27° 200° (SSW) 893 4.3 -19.7°
Enters shadow 12:41:37 27° 196° (SSW) 904 4.3 -19.8°
